[[{"header":{"parameterUnit":"m.s-1","parameterCategory":1,"la1":30.2991,"la2":30.254,"lo1":-89.0895,"lo2":-89.0444,"dy":0.0017,"dx":0.0017,"nx":28,"ny":28,"refTime":"2023-10-03T21:00:00:Z","depth":0,"parameterNumber":2,"parameterNumberName":"U-component_of_WINDS"},"data":[0,0,0,0,0,0,0,0,0,0,0,0,0,0,0,0,0,0,0,0,0,0,0,0,0,0,0,0,0,0,0,0,0,0,0,0,0,0,0,0,0,0,0,0,0,0,0,0,0,0,0,0,0,0,0,0,0,0,-2.6677,-2.6677,0,-2.6709,-2.6709,-2.671,-2.6639,-2.6637,-2.6635,-2.6632,-2.6665,-2.6668,-2.6671,0,0,0,0,0,0,0,0,0,0,0,0,0,-2.6553,-2.6556,-2.6677,-2.6677,-2.6677,-2.6709,-2.6709,-2.671,-2.664,-2.6637,-2.6634,-2.6631,-2.6664,-2.6667,-2.6671,0,0,0,0,0,0,0,0,0,0,0,0,0,-2.6598,-2.6557,-2.6677,-2.6646,-2.6644,-2.6709,-2.6709,-2.671,-2.664,-2.6637,-2.6633,-2.663,-2.6663,-2.6667,-2.6671,-2.6767,0,0,-2.6685,-2.6687,0,0,0,0,0,0,0,0,-2.6596,-2.6603,-2.665,-2.6648,-2.6646,-2.6667,-2.6678,-2.6729,-2.6641,-2.6642,-2.6632,-2.6628,-2.6668,-2.6672,-2.6685,-2.6769,-2.677,-2.6686,-2.6688,-2.669,-2.6691,0,0,0,0,0,0,0,-2.6593,-2.6601,-2.6689,-2.6651,-2.6648,-2.6631,-2.6633,-2.6687,-2.6674,-2.6641,-2.6636,-2.6641,-2.6666,-2.6681,-2.6686,-2.6771,-2.6685,-2.6689,-2.6692,-2.6694,-2.6934,-2.6938,0,0,0,0,0,0,-2.6594,-2.6599,-2.6688,-2.669,-2.6612,-2.6636,-2.6639,-2.6663,-2.6673,-2.6671,-2.6644,-2.6638,-2.6675,-2.6681,-2.6687,-2.6799,-2.669,-2.6694,-2.6697,-2.693,-2.6935,-2.6939,0,0,0,0,0,0,-2.6591,-2.6602,-2.6687,-2.6643,-2.6653,-2.6641,-2.667,-2.6666,-2.6681,-2.6675,-2.6672,-2.6662,-2.6673,-2.668,-2.6748,-2.6799,-2.6696,-2.67,-2.6926,-2.6932,-2.6937,-2.7025,0,0,0,0,0,0,-2.6588,-2.6602,-2.6638,-2.6645,-2.6655,-2.6748,-2.6673,-2.6669,-2.6689,-2.6681,-2.6691,-2.6689,-2.6671,-2.6741,-2.6752,-2.6803,-2.6704,-2.6921,-2.6929,-2.6935,-2.7017,-2.7033,-2.7046,0,0,0,0,0,-2.6584,-2.6662,-2.664,-2.6652,-2.6701,-2.6751,-2.6757,-2.6735,-2.6693,-2.673,-2.6726,-2.6689,-2.6792,-2.6749,-2.6761,-2.6814,-2.6918,-2.6927,-2.6935,-2.7011,-2.703,-2.7046,0,0,0,0,0,0,-2.6661,-2.6662,-2.6638,-2.6721,-2.6737,-2.6739,-2.6784,-2.6755,-2.6783,-2.6774,-2.6745,-2.6748,-2.6821,-2.6824,-2.6776,-2.6907,-2.6848,-2.6859,-2.6902,-2.692,-2.6934,-2.6931,-2.6708,0,0,0,0,0,-2.6688,-2.6729,-2.6728,-2.68,-2.681,-2.6796,-2.6817,-2.6798,-2.6813,-2.682,-2.6821,-2.6836,-2.6872,-2.6896,-2.6929,-2.7018,-2.7019,-2.706,-2.7075,-2.7086,-2.7096,-2.7143,-2.7161,-2.6966,-2.6966,-2.6966,0,0,-2.6744,-2.6749,-2.6777,-2.6816,-2.6826,-2.6869,-2.6802,-2.685,-2.6882,-2.6827,-2.689,-2.6892,-2.6908,-2.6986,-2.7021,-2.6991,-2.715,-2.7097,-2.7106,-2.7109,-2.7153,-2.7172,-2.7188,-2.6972,-2.6971,-2.697,0,0,-2.6867,-2.6875,-2.6937,-2.6948,-2.6964,-2.6955,-2.697,-2.6977,-2.6976,-2.7039,-2.6999,-2.7036,-2.7098,-2.7111,-2.7126,-2.7254,-2.7221,-2.7266,-2.734,-2.7386,-2.7401,-2.7415,-2.746,-2.7476,-2.7275,-2.7276,-2.7276,0,-2.6934,-2.6997,-2.6972,-2.7023,-2.7041,-2.6994,-2.7056,-2.7068,-2.7094,-2.7108,-2.7074,-2.7151,-2.7159,-2.7239,-2.7271,-2.7284,-2.73,-2.7264,-2.7401,-2.7414,-2.7427,-2.7469,-2.7486,-2.7281,-2.728,-2.728,-2.7279,0,-2.7078,-2.7123,-2.717,-2.7197,-2.722,-2.7277,-2.726,-2.7287,-2.7266,-2.726,-2.7326,-2.7333,-2.7366,-2.7384,-2.7364,-2.7462,-2.7443,-2.7406,-2.7346,-2.7451,-2.749,-2.7507,-2.7288,-2.7287,-2.7285,-2.7284,0,0,-2.725,-2.7262,-2.728,-2.7291,-2.7306,-2.7339,-2.7394,-2.7426,-2.745,-2.7469,-2.7514,-2.7568,-2.7534,-2.7551,-2.7532,-2.7573,-2.7673,-2.753,-2.753,-2.7556,-2.778,-2.7808,-2.7827,-2.7652,-2.7655,-2.7657,-2.7779,0,-2.7371,-2.7464,-2.7443,-2.7535,-2.7575,-2.7531,-2.7578,-2.7592,-2.7588,-2.7622,-2.7617,-2.7656,-2.7608,-2.7618,-2.7656,-2.7653,-2.7718,-2.7644,-2.7692,-2.7694,-2.7689,-2.7848,-2.7876,-2.7991,-2.7794,-2.7797,-2.7799,0,-2.7525,-2.755,-2.7646,-2.7654,-2.767,-2.7712,-2.774,-2.7774,-2.7788,-2.7782,-2.7802,-2.7775,-2.7829,-2.7769,-2.7842,-2.7792,-2.7811,-2.7812,-2.7816,-2.7819,-2.7752,-2.7854,-2.8027,-2.8044,-2.7823,-2.7821,-2.7819,0,-2.764,-2.7698,-2.7763,-2.7774,-2.7785,-2.7816,-2.7821,-2.7833,-2.7854,-2.7878,-2.7892,-2.7922,-2.7939,-2.7963,-2.7946,-2.7904,-2.8022,-2.7961,-2.8018,-2.8018,-2.8044,-2.8042,-2.8221,-2.8058,-2.8057,-2.8057,-2.8057,0,-2.7777,-2.7837,-2.7815,-2.7854,-2.792,-2.7896,-2.7962,-2.7962,-2.7973,-2.8012,-2.7976,-2.8013,-2.7988,-2.8023,-2.801,-2.8072,-2.808,-2.8077,-2.8072,-2.808,-2.808,-2.8091,-2.8082,-2.8061,-2.806,-2.806,-2.8059,0,-2.7916,-2.7904,-2.7971,-2.7976,-2.7978,-2.8027,-2.803,-2.8067,-2.8061,-2.811,-2.8121,-2.8111,-2.815,-2.8135,-2.8178,-2.8169,-2.8248,-2.8233,-2.8243,-2.8239,-2.8297,-2.8291,-2.8488,-2.8513,-2.8334,-2.8336,-2.8337,0,-2.8004,-2.8049,-2.8059,-2.8082,-2.8091,-2.8129,-2.815,-2.8128,-2.8151,-2.8172,-2.8206,-2.8243,-2.827,-2.8336,-2.8332,-2.8364,-2.835,-2.8416,-2.8354,-2.836,-2.835,-2.8347,-2.8351,-2.8429,-2.8431,-2.8432,-2.8434,0,-2.8161,-2.8153,-2.8185,-2.8215,-2.8241,-2.8264,-2.8283,-2.8304,-2.8283,-2.8311,-2.8351,-2.8373,-2.8416,-2.8452,-2.8481,-2.8487,-2.8457,-2.8454,-2.8468,-2.8476,-2.8479,-2.8478,-2.8276,-2.8449,-2.8447,-2.8446,-2.8446,-2.8445,-2.8277,-2.8315,-2.8327,-2.8364,-2.8376,-2.8395,-2.843,-2.8428,-2.8461,-2.8494,-2.8479,-2.8525,-2.8539,-2.8574,-2.8584,-2.862,-2.8594,-2.8616,-2.8621,-2.8627,-2.8634,-2.8474,-2.8625,-2.8625,-2.8624,-2.8624,-2.8624,0,-2.8432,-2.8437,-2.8472,-2.85,-2.8529,-2.8498,-2.8518,-2.8544,-2.8585,-2.86,-2.8629,-2.8675,-2.871,-2.8709,-2.8742,-2.8771,-2.8758,-2.878,-2.8777,-2.8779,-2.8655,-2.8639,-2.879,-2.879,-2.879,-2.879,-2.879,-2.879,-2.8515,-2.8578,-2.8571,-2.8639,-2.8644,-2.8689,-2.8703,-2.872,-2.8732,-2.8785,-2.8814,-2.8813,-2.8822,-2.8855,-2.8886,-2.8885,-2.8899,-2.8926,-2.892,-2.8804,-2.8788,-2.8772,-2.8756,-2.8929,-2.8929,-2.904,-2.9041,-2.9042]},{"header":{"parameterUnit":"m.s-1","parameterCategory":1,"la1":30.2991,"la2":30.254,"lo1":-89.0895,"lo2":-89.0444,"dy":0.0017,"dx":0.0017,"nx":28,"ny":28,"refTime":"2023-10-03T21:00:00:Z","depth":0,"parameterNumber":3,"parameterNumberName":"V-component_of_WINDS"},"data":[0,0,0,0,0,0,0,0,0,0,0,0,0,0,0,0,0,0,0,0,0,0,0,0,0,0,0,0,0,0,0,0,0,0,0,0,0,0,0,0,0,0,0,0,0,0,0,0,0,0,0,0,0,0,0,0,0,0,1.6985,1.6985,0,1.6986,1.6986,1.6986,1.6975,1.6975,1.6975,1.6974,1.6975,1.6976,1.6976,0,0,0,0,0,0,0,0,0,0,0,0,0,1.6973,1.6973,1.6985,1.6985,1.6985,1.6986,1.6986,1.6986,1.6975,1.6975,1.6974,1.6974,1.6975,1.6975,1.6976,0,0,0,0,0,0,0,0,0,0,0,0,0,1.6977,1.6973,1.6985,1.698,1.6979,1.6986,1.6986,1.6986,1.6975,1.6975,1.6974,1.6974,1.6975,1.6975,1.6976,1.6988,0,0,1.6977,1.6978,0,0,0,0,0,0,0,0,1.6976,1.6977,1.698,1.698,1.698,1.698,1.6982,1.6987,1.6975,1.6977,1.6974,1.6974,1.6977,1.6977,1.6979,1.6988,1.6988,1.6977,1.6978,1.6978,1.6978,0,0,0,0,0,0,0,1.6976,1.6977,1.6986,1.6981,1.698,1.6977,1.6977,1.6983,1.698,1.6977,1.6976,1.6976,1.6977,1.6978,1.6979,1.6988,1.6977,1.6978,1.6978,1.6978,1.7008,1.7009,0,0,0,0,0,0,1.6977,1.6977,1.6986,1.6986,1.6977,1.6978,1.6978,1.698,1.6979,1.6979,1.6977,1.6976,1.6978,1.6978,1.6979,1.6993,1.6978,1.6978,1.6979,1.7008,1.7008,1.7009,0,0,0,0,0,0,1.6976,1.6978,1.6985,1.6981,1.6982,1.6979,1.6982,1.6981,1.6982,1.6979,1.6979,1.6979,1.6977,1.6978,1.6986,1.6993,1.6979,1.6979,1.7007,1.7008,1.7008,1.7021,0,0,0,0,0,0,1.6976,1.6978,1.6982,1.6981,1.6982,1.6993,1.6982,1.6981,1.6983,1.6982,1.6981,1.6981,1.6977,1.6985,1.6986,1.6993,1.6979,1.7006,1.7007,1.7008,1.702,1.7022,1.7024,0,0,0,0,0,1.6976,1.6985,1.6982,1.6983,1.6988,1.6993,1.6994,1.6989,1.6984,1.6988,1.6987,1.6981,1.6992,1.6986,1.6987,1.6994,1.7006,1.7007,1.7008,1.7019,1.7022,1.7024,0,0,0,0,0,0,1.6987,1.6985,1.6982,1.6991,1.6993,1.6991,1.6997,1.6992,1.6995,1.6994,1.6988,1.6988,1.6997,1.6997,1.699,1.7006,1.6998,1.6999,1.7006,1.7008,1.701,1.701,1.698,0,0,0,0,0,1.699,1.6995,1.6993,1.7002,1.7003,1.7,1.7002,1.6999,1.7,1.7,1.6999,1.7,1.7004,1.7006,1.7009,1.702,1.702,1.7026,1.7028,1.7029,1.703,1.7036,1.7038,1.7013,1.7012,1.7012,0,0,1.6998,1.6997,1.7,1.7004,1.7005,1.7009,1.7,1.7006,1.7009,1.7001,1.7008,1.7007,1.7008,1.7018,1.7022,1.7018,1.7038,1.7031,1.7032,1.7032,1.7037,1.704,1.7042,1.7013,1.7013,1.7013,0,0,1.7013,1.7014,1.7021,1.7022,1.7023,1.7021,1.7023,1.7022,1.7022,1.7029,1.7023,1.7027,1.7034,1.7035,1.7036,1.7053,1.7048,1.7054,1.7064,1.707,1.7072,1.7073,1.7079,1.7081,1.7056,1.7056,1.7056,0,1.7022,1.7029,1.7025,1.7031,1.7033,1.7026,1.7033,1.7034,1.7036,1.7038,1.7033,1.7042,1.7042,1.7051,1.7056,1.7057,1.7059,1.7054,1.7072,1.7074,1.7075,1.708,1.7082,1.7056,1.7056,1.7056,1.7056,0,1.7039,1.7044,1.705,1.7052,1.7055,1.7062,1.7059,1.7062,1.7059,1.7058,1.7066,1.7066,1.7069,1.7071,1.7068,1.708,1.7078,1.7073,1.7064,1.7078,1.7083,1.7085,1.7057,1.7057,1.7057,1.7057,0,0,1.706,1.7061,1.7063,1.7064,1.7066,1.7069,1.7076,1.708,1.7082,1.7084,1.7089,1.7096,1.7091,1.7093,1.709,1.7095,1.7108,1.7089,1.7089,1.7092,1.7121,1.7124,1.7126,1.7105,1.7105,1.7106,1.7121,0,1.7075,1.7086,1.7083,1.7094,1.7099,1.7093,1.7099,1.71,1.7099,1.7103,1.7102,1.7107,1.7101,1.7102,1.7106,1.7105,1.7113,1.7104,1.7109,1.7109,1.7108,1.7129,1.7132,1.7146,1.7123,1.7123,1.7123,0,1.7093,1.7096,1.7107,1.7108,1.711,1.7115,1.7118,1.7122,1.7124,1.7123,1.7125,1.7122,1.7128,1.7121,1.7129,1.7123,1.7125,1.7125,1.7126,1.7125,1.7116,1.7128,1.7151,1.7152,1.7126,1.7126,1.7126,0,1.7106,1.7113,1.7121,1.7122,1.7124,1.7127,1.7128,1.7129,1.7132,1.7135,1.7136,1.714,1.7142,1.7145,1.7142,1.7137,1.7151,1.7144,1.715,1.715,1.7152,1.7152,1.7175,1.7156,1.7156,1.7155,1.7155,0,1.7122,1.7129,1.7127,1.7132,1.714,1.7137,1.7145,1.7145,1.7146,1.7151,1.7146,1.7151,1.7148,1.7152,1.715,1.7157,1.7159,1.7158,1.7157,1.7158,1.7158,1.7158,1.7157,1.7156,1.7156,1.7156,1.7156,0,1.7138,1.7137,1.7145,1.7146,1.7146,1.7152,1.7153,1.7157,1.7156,1.7162,1.7164,1.7162,1.7167,1.7165,1.717,1.7169,1.7178,1.7177,1.7178,1.7177,1.7184,1.7183,1.7206,1.7209,1.7189,1.7189,1.7189,0,1.7147,1.7153,1.7155,1.7157,1.7159,1.7163,1.7166,1.7164,1.7167,1.7169,1.7173,1.7178,1.7181,1.7189,1.7189,1.7193,1.719,1.7199,1.7191,1.7191,1.719,1.7189,1.7189,1.72,1.72,1.72,1.72,0,1.7164,1.7164,1.7168,1.7172,1.7175,1.7178,1.7181,1.7184,1.7182,1.7185,1.719,1.7193,1.7198,1.7203,1.7206,1.7207,1.7203,1.7203,1.7205,1.7205,1.7205,1.7204,1.7181,1.7202,1.7202,1.7202,1.7202,1.7202,1.7177,1.7181,1.7184,1.7188,1.719,1.7193,1.7197,1.7197,1.7202,1.7206,1.7205,1.721,1.7212,1.7217,1.7218,1.7222,1.7219,1.7222,1.7222,1.7223,1.7223,1.7205,1.7223,1.7223,1.7223,1.7223,1.7223,0,1.7193,1.7195,1.7199,1.7203,1.7207,1.7204,1.7207,1.721,1.7215,1.7218,1.7221,1.7227,1.7232,1.7232,1.7236,1.7239,1.7238,1.724,1.724,1.724,1.7226,1.7224,1.7242,1.7242,1.7242,1.7242,1.7242,1.7242,1.7202,1.721,1.7209,1.7218,1.7219,1.7225,1.7227,1.7229,1.7231,1.7238,1.7242,1.7242,1.7244,1.7248,1.7252,1.7252,1.7253,1.7257,1.7256,1.7243,1.7241,1.7239,1.7237,1.7257,1.7257,1.7269,1.7269,1.7269]}]]